Regional Weather Roundup
Issued by NWS Cleveland, OH

Home | Current Version | Previous Version | Text Only | Print | Product List | Glossary On
Versions: 1 2 3 4 5 6 7 8 9 10 11 12 13 14 15 16 17 18 19 20 21 22 23 24 25 26 27 28 29 30 31 32 33 34 35 36 37 38 39 40 41 42 43 44 45 46 47 48 49 50
000
ASUS41 KCLE 040410
RWRCLE
OHIO REGIONAL WEATHER ROUNDUP
NATIONAL WEATHER SERVICE WILMINGTON, OH
1200 AM EDT SAT JUL 04 2015

NOTE: "FAIR" INDICATES FEW OR NO CLOUDS BELOW 12,000 FEET WITH NO
SIGNIFICANT WEATHER AND/OR OBSTRUCTIONS TO VISIBILITY.

OHZ001>008-015>018-024>027-034-035-043-044-040500-
   NORTHWEST OHIO

CITY           SKY/WX    TMP DP  RH WIND       PRES   REMARKS
DEFIANCE       CLEAR     61  56  83 CALM      29.94R
FINDLAY        CLEAR     63  53  70 CALM      29.93R
TOLEDO EXPRESS CLEAR     56  53  90 CALM      29.93S
TOLEDO EXEC    CLEAR     59  51  75 CALM      29.94S
LIMA           CLEAR     60  57  89 CALM      29.94R
$$

OHZ009>014-019>023-028>033-038-089-040500-
   NORTHEAST OHIO

CITY           SKY/WX    TMP DP  RH WIND       PRES   REMARKS
CLE-HOPKINS    PTCLDY    65  52  62 N5        29.92S
CLE-LAKEFRONT  PTCLDY    66  53  63 NE5       29.90S
CUY CO. ARPT   NOT AVBL
LORAIN-ELYRIA  PTCLDY    58  56  93 N6        29.92R
ASHTABULA      MOCLDY    59  52  77 CALM      29.92S
AKRON-CANTON   CLOUDY    67  56  67 NE9       29.90S
WOOSTER        PTCLDY    60  57  89 N6        29.91S
MANSFIELD      CLEAR     59  57  93 NW3       29.92S
YOUNGSTOWN     LGT RAIN  65  57  75 CALM      29.90F
$$

OHZ042-051>053-060>062-070>072-077>081-040500-
  SOUTHWEST OHIO

CITY           SKY/WX    TMP DP  RH WIND       PRES   REMARKS
CINC-COVINGTON CLOUDY    70  62  76 E8        29.91R
CINC-LUNKEN    CLOUDY    69  63  81 N3        29.90S
HAMILTON       MOCLDY    66  64  93 CALM      29.92R FOG
DAYTON         MOCLDY    67  65  93 N5        29.93R FOG
WRIGHT-PAT AFB CLEAR     65  62  91 W2        29.91S
DAYTON GENERAL PTCLDY    65  62  90 CALM      29.91R
WILMINGTON     MOCLDY    65  62  90 NW3       29.90F FOG
$$

OHZ036-037-039>041-045>050-054>059-063>069-073>076-082>088-040500-
  CENTRAL AND SOUTHEAST OHIO

CITY           SKY/WX    TMP DP  RH WIND       PRES   REMARKS
COLUMBUS       MOCLDY    66  64  93 CALM      29.89S
OSU AIRPORT    PTCLDY    66  63  90 N5        29.90S
BOLTON FIELD   MOCLDY    64  64 100 W3        29.91S FOG
RICKENBACK AFB MOCLDY    64  64  98 CALM      29.89F FOG
NEWARK         MOCLDY    65  63  93 CALM      29.89F FOG
MARION         CLEAR     62  56  80 NW6       29.92S
LANCASTER      FOG       62  60  93 CALM      29.91S VSB 1
ZANESVILLE     CLOUDY    64  62  93 NW3       29.89F FOG
NEW PHILLY     CLOUDY    66  64  93 CALM      29.90R
$$


USA.gov is the U.S. government's official web portal to all federal, state and local government web resources and services.